Wind_Speed
89 89 90 90 91 91 92 92 93 93 94 94 95 95 96 97 97 98 99 99 100 100 101 101 102 102 103 103 104 104 104 104 104 104 103 103 103 103 103 103 103 102 102 102 102 101 101 101 100 100 99 98 98 97 97 97 96 96 95 94 94 93 93 92 91 91 90 90 89 88 88 87 87 87 86 86 85 84 83 82 82 81 80 80 79 78
88 88 89 89 90 91 91 92 92 92 93 94 94 95 95 96 97 97 98 99 99 100 100 101 101 102 102 103 103 104 104 104 104 104 104 104 104 104 104 103 103 103 103 103 103 102 102 102 102 101 100 100 99 98 98 98 97 97 96 96 95 94 94 93 93 92 91 91 90 90 89 88 88 88 87 87 87 86 85 84 83 82 81 80 79 78
86 87 88 88 89 90 90 91 91 92 92 93 93 94 95 95 96 97 97 98 98 99 100 100 101 101 102 102 103 103 104 104 104 104 104 104 104 104 104 104 104 104 104 104 103 103 103 103 103 103 102 101 100 99 99 99 98 98 97 97 96 95 95 94 94 93 93 92 92 91 90 90 89 89 88 88 88 87 86 85 84 83 82 81 80 79
85 86 87 87 88 89 89 90 91 91 92 92 93 93 94 95 95 96 97 97 98 98 99 100 100 101 101 102 102 103 103 104 104 104 104 104 104 104 104 104 104 104 104 104 104 103 103 103 103 103 103 102 101 100 100 99 99 99 98 98 97 96 96 95 95 95 94 93 93 92 92 91 90 90 90 89 89 89 88 87 86 85 84 83 82 81
84 85 86 87 87 88 89 89 90 90 91 92 92 93 94 94 95 96 96 97 98 98 99 99 100 100 101 101 102 102 102 103 103 104 104 104 104 104 104 104 104 104 104 104 104 103 103 103 103 104 103 103 102 101 100 100 100 99 99 98 98 97 97 96 96 95 95 94 94 93 93 92 92 91 91 90 90 90 89 89 88 87 85 84 83 82
84 84 85 86 87 87 88 89 89 90 90 91 92 92 93 94 94 95 96 97 97 98 98 99 99 100 100 101 101 101 102 102 103 103 103 104 104 104 104 104 104 103 103 103 103 103 103 103 103 103 103 103 102 102 101 101 100 100 100 99 98 98 97 97 96 96 95 95 94 94 93 93 92 92 91 91 91 91 90 90 89 88 87 86 85 84
83 84 85 85 86 87 87 88 89 89 90 91 91 92 93 93 94 95 95 96 97 97 98 98 99 100 100 100 101 101 101 102 102 102 103 103 103 103 103 103 103 103 103 103 103 103 103 103 103 103 103 103 102 101 101 101 100 100 100 100 99 98 97 97 96 96 95 95 94 94 93 93 92 92 91 91 91 91 91 90 89 88 87 86 85 84
83 84 84 85 86 86 87 88 88 89 90 90 91 92 92 93 94 94 95 96 96 97 98 98 99 99 100 100 100 101 101 101 102 102 102 103 103 103 103 103 103 103 103 103 102 102 102 102 102 102 102 102 102 101 101 100 100 100 100 99 99 98 98 97 96 95 95 94 93 93 93 93 92 91 90 90 90 90 90 89 89 88 87 86 85 85
83 84 84 85 85 86 87 87 88 89 89 90 91 91 92 93 93 94 95 95 96 96 97 98 98 99 99 100 100 100 100 101 101 101 102 102 102 102 102 102 102 102 102 102 102 102 102 102 102 102 102 101 101 101 100 100 99 99 99 99 98 98 97 97 96 95 94 94 93 92 92 91 91 90 89 89 89 89 88 88 87 87 86 85 85 84
83 84 84 85 86 86 87 87 88 89 89 90 90 91 92 92 93 94 94 95 96 96 97 97 98 98 99 99 100 100 100 100 100 101 101 101 101 102 102 101 101 101 101 101 101 101 101 101 101 101 101 101 101 100 100 99 99 98 98 98 98 97 97 96 96 95 94 93 92 91 91 90 89 89 88 88 88 87 87 86 86 85 85 84 84 83
84 84 85 85 86 86 87 87 88 89 89 90 90 91 91 92 93 93 94 95 96 96 97 97 97 98 98 99 99 99 100 100 100 100 100 100 101 101 101 101 101 101 100 100 100 100 100 100 100 100 100 100 100 100 99 99 98 98 97 97 97 96 96 95 95 94 94 93 92 91 90 89 88 87 87 87 87 86 86 85 84 83 83 83 82 82
84 85 85 86 86 87 87 88 88 89 89 90 91 91 91 92 93 93 94 95 95 96 96 97 97 98 98 98 98 99 99 99 99 99 99 100 100 100 100 100 99 99 99 99 99 99 99 99 99 99 99 99 99 99 98 98 97 97 97 96 96 96 95 95 94 94 93 92 91 90 89 88 87 86 86 86 86 86 85 84 83 82 81 81 81 81
85 85 85 86 86 87 87 88 89 89 90 90 91 91 92 92 93 93 94 94 95 96 96 97 97 97 98 98 98 98 98 98 98 98 98 99 99 99 98 98 98 98 98 98 98 98 98 98 98 98 98 98 98 98 98 97 97 96 96 96 95 95 95 94 93 93 92 91 90 90 89 88 87 86 85 85 85 85 84 83 82 81 80 80 80 80
85 85 86 86 87 87 88 88 89 89 90 91 91 92 92 93 93 93 94 94 95 95 96 96 97 97 98 98 98 97 97 97 97 97 97 97 98 97 97 97 97 97 97 97 98 98 98 98 98 98 97 97 97 97 97 97 96 96 95 95 95 95 94 94 93 92 91 91 90 89 89 88 87 86 85 85 85 84 84 83 81 80 80 79 79 79
85 86 86 87 87 88 88 89 89 90 91 91 91 92 92 93 93 94 94 95 95 95 95 96 96 97 97 97 97 97 97 96 96 96 96 97 97 96 96 96 96 96 96 96 96 97 97 97 97 97 97 97 97 96 96 96 96 95 95 95 95 94 94 93 92 92 91 90 89 89 88 88 87 86 85 85 84 84 83 82 81 80 79 78 78 78
85 86 86 87 87 88 88 89 90 90 91 91 92 92 93 93 94 94 94 95 95 95 95 95 96 96 97 97 97 96 96 96 96 95 96 96 96 96 96 96 96 95 95 95 96 96 96 96 96 96 96 96 96 96 96 95 95 95 95 94 94 94 93 92 92 91 90 89 89 88 88 87 87 86 85 85 84 83 82 82 81 80 79 77 77 77
86 86 87 87 88 88 89 89 90 90 91 91 92 92 93 93 93 94 94 95 95 95 95 95 95 96 96 96 96 96 95 95 95 95 95 95 96 95 95 95 95 95 95 95 95 95 95 95 95 95 95 95 95 95 95 95 95 94 94 94 93 93 92 92 91 90 89 89 88 88 87 87 86 85 84 84 83 82 82 81 80 79 78 77 76 76
85 86 86 87 87 88 89 89 90 90 91 91 91 92 92 93 93 94 94 94 94 95 95 95 95 95 96 96 96 95 95 95 95 94 94 95 95 95 95 95 95 95 95 95 95 95 95 95 95 95 95 95 94 94 94 94 94 94 93 93 93 92 91 91 90 89 88 88 87 87 86 85 85 84 83 82 82 81 81 80 79 78 77 76 76 75
85 85 85 86 87 88 88 89 89 90 90 91 91 92 92 93 93 93 94 94 94 94 94 95 95 95 95 96 95 95 94 94 94 94 94 95 95 95 94 94 95 95 95 95 95 95 94 94 94 94 94 94 94 93 93 93 93 93 92 92 92 91 90 89 89 88 87 87 86 86 85 84 83 82 82 81 81 80 79 79 78 77 76 76 75 75
84 84 84 85 86 87 88 88 89 89 90 90 91 91 92 92 93 93 93 93 93 94 94 94 94 94 94 94 94 94 94 93 93 94 94 94 94 94 94 94 94 94 94 94 94 94 94 94 94 93 93 93 93 92 92 92 91 91 91 91 90 90 89 88 87 87 86 86 85 84 84 83 82 81 80 80 79 79 78 77 77 76 75 75 74 74
83 83 84 84 85 86 87 88 88 88 89 89 90 91 91 92 92 93 93 93 93 93 93 93 93 93 93 93 93 93 92 92 92 92 92 92 93 93 93 93 93 94 94 94 93 93 93 93 93 93 92 92 92 91 91 90 90 90 89 89 89 88 88 87 86 86 85 84 84 83 82 82 81 80 79 78 78 78 77 76 76 75 75 74 74 73
81 82 83 83 84 84 85 86 87 88 88 89 89 90 91 91 92 92 92 92 92 92 92 92 92 92 92 92 92 92 91 91 91 91 90 91 91 92 92 92 92 93 93 93 93 92 92 92 92 92 91 91 91 90 90 89 89 88 88 88 87 87 87 86 85 85 84 83 83 82 82 81 80 79 78 77 77 76 76 75 75 75 74 74 73 73
79 80 81 82 82 83 84 85 86 87 88 88 89 89 90 90 91 91 91 91 91 91 91 91 91 91 91 91 91 91 90 90 89 89 89 89 89 90 90 90 90 91 92 92 92 92 92 92 91 91 91 90 90 89 89 88 87 87 86 86 86 85 85 85 85 84 83 82 82 81 80 80 79 78 77 76 76 75 75 75 74 74 73 73 73 73
78 79 79 80 81 82 83 84 85 86 87 87 88 89 89 90 90 90 90 90 90 90 90 90 90 90 90 90 90 90 90 89 88 88 87 87 88 88 88 88 89 90 90 91 91 91 91 91 91 91 91 90 90 89 88 87 86 85 85 84 84 84 84 84 83 83 83 82 81 80 79 79 78 77 77 76 75 74 74 74 73 73 73 73 72 72
77 78 79 79 80 81 82 83 84 85 86 87 87 88 89 89 89 89 90 89 89 89 89 89 89 89 90 89 89 89 89 88 87 87 87 87 87 87 87 87 87 88 89 89 89 90 90 90 91 91 91 90 90 89 88 87 86 85 84 83 83 83 82 82 82 82 82 81 80 79 79 78 77 77 76 75 74 73 73 73 73 72 72 72 72 72
76 77 78 79 80 81 82 83 84 85 85 86 87 87 88 88 88 88 88 88 88 88 88 88 88 88 89 88 89 89 89 88 87 87 86 86 86 87 87 87 87 87 88 88 88 89 89 90 90 90 90 90 90 89 89 88 87 86 84 83 83 82 81 81 81 81 80 80 80 79 78 78 77 76 76 75 74 73 72 72 72 71 71 71 71 71
75 76 77 78 79 80 81 82 83 84 84 85 86 86 86 87 87 87 87 87 87 87 87 87 87 87 88 88 88 88 88 88 87 87 86 86 86 87 87 87 87 87 87 88 88 88 88 89 89 90 90 90 90 90 89 89 88 87 86 85 84 82 82 81 80 80 80 79 79 79 78 78 77 76 75 75 74 73 72 71 71 70 70 70 70 70
74 75 77 78 79 80 81 82 82 83 84 84 85 85 85 85 85 86 86 86 86 86 86 86 86 86 87 87 87 88 88 88 87 87 86 86 86 87 87 87 87 87 87 88 88 88 88 89 89 89 89 89 89 89 89 89 88 88 87 86 85 84 83 82 81 80 79 79 79 79 78 78 77 76 76 75 74 73 72 71 70 70 69 69 70 70
74 75 76 77 78 79 80 81 82 83 83 84 84 84 84 84 84 85 85 85 85 85 85 85 85 85 86 86 86 87 87 87 87 86 86 86 86 87 87 87 87 87 87 87 88 88 89 89 89 89 88 89 89 89 89 89 89 88 88 87 87 86 85 84 83 81 80 79 79 78 78 78 77 77 76 75 74 74 72 71 70 69 69 69 69 69
74 75 76 77 78 79 80 81 82 83 83 84 84 84 84 84 84 84 84 84 84 84 85 85 85 85 85 85 86 86 86 87 86 86 85 85 86 86 86 86 86 87 87 87 87 88 89 89 89 88 88 88 88 88 88 88 88 88 88 88 87 87 87 86 85 84 82 81 80 79 78 78 78 77 77 76 75 74 73 72 71 70 69 69 69 69
74 75 76 78 79 80 81 82 83 83 84 84 84 84 84 83 84 84 84 84 84 84 84 85 85 85 85 85 85 86 86 86 86 85 85 85 85 85 85 86 86 86 86 86 86 87 88 89 89 88 88 87 87 87 88 88 87 87 87 87 88 88 88 87 87 86 85 83 82 80 79 79 78 78 77 77 76 75 74 73 71 70 69 69 69 69
74 76 77 78 80 81 82 83 83 84 84 84 84 84 84 84 84 84 84 84 84 85 85 85 85 85 85 85 86 86 86 86 86 85 85 85 85 85 85 85 85 85 85 85 85 86 87 88 89 88 88 87 87 87 87 87 87 87 87 87 87 88 88 88 87 87 87 86 84 83 81 80 79 78 78 78 77 76 75 74 72 71 70 70 70 70
75 77 78 79 81 82 83 83 84 84 84 84 84 84 84 84 84 84 85 85 85 86 86 86 86 87 87 87 87 87 87 87 87 86 86 86 86 85 85 85 85 85 85 85 85 85 86 87 88 88 87 87 86 86 86 86 86 86 86 86 87 87 87 87 87 88 88 87 86 85 83 81 80 79 79 78 78 77 76 75 74 72 72 71 71 70
76 78 79 81 82 83 84 85 85 85 85 85 85 85 85 85 85 85 86 86 87 87 87 87 88 88 88 88 88 88 89 88 88 87 87 87 86 86 85 85 85 84 84 84 84 84 85 85 86 87 87 87 86 86 85 85 85 85 85 85 86 86 86 87 87 88 88 88 88 87 86 84 82 81 80 79 78 78 77 76 75 74 73 72 72 71
77 79 81 82 83 85 85 86 86 86 86 86 86 86 86 86 86 86 87 87 88 88 88 88 88 89 89 89 90 90 90 90 89 89 88 88 87 87 86 86 85 85 84 84 84 84 84 84 85 85 86 86 86 85 85 84 84 84 84 84 85 85 86 86 86 87 88 88 88 88 87 86 84 83 81 80 80 79 78 77 76 75 74 74 73 73
79 80 82 83 85 86 87 87 88 87 87 87 87 87 87 87 87 87 88 88 89 89 89 89 89 89 89 90 90 90 91 91 90 90 89 89 88 87 87 86 86 85 84 84 84 84 84 84 84 84 85 85 85 85 84 84 83 83 83 84 84 84 85 85 85 86 87 88 88 89 89 88 86 85 83 82 81 80 79 78 77 76 75 75 74 74
80 82 83 85 86 87 88 89 89 89 89 88 88 88 88 88 88 88 89 89 89 90 90 90 90 90 90 90 90 90 90 91 91 90 90 89 88 88 87 86 86 85 84 84 84 83 83 83 83 83 84 84 84 84 84 83 83 83 83 83 83 84 84 84 85 85 86 87 88 89 89 89 88 87 85 83 82 81 80 79 78 77 76 76 76 75
81 83 85 86 87 89 89 90 90 90 90 90 89 89 89 89 89 90 90 90 90 90 91 91 90 90 90 90 89 89 90 90 90 90 90 89 88 87 87 86 86 85 84 84 83 83 83 83 83 83 83 84 84 84 84 83 83 83 83 83 83 83 84 84 84 85 86 87 88 88 89 89 89 88 87 85 83 82 81 80 79 78 78 77 77 76
82 84 86 87 89 90 91 91 91 91 91 91 90 90 90 91 91 91 91 91 91 91 91 91 91 90 90 89 89 89 89 89 89 89 89 88 88 87 86 86 85 85 84 83 83 83 83 83 83 83 83 83 84 84 84 83 83 83 83 83 83 83 83 84 84 85 85 86 87 88 89 89 89 89 88 87 85 84 82 81 80 79 79 78 78 77
84 85 87 89 90 91 92 92 92 92 92 92 91 91 91 91 91 91 91 91 91 91 91 91 90 90 89 89 88 87 87 87 87 87 88 87 87 86 86 85 85 84 84 83 83 83 83 83 83 83 83 84 84 84 84 84 83 83 83 83 83 83 83 83 84 85 85 86 87 88 89 89 90 90 89 88 87 85 84 83 81 80 80 79 79 78
85 87 88 90 91 92 92 93 93 93 92 92 92 92 92 92 92 92 92 91 91 91 91 90 90 89 89 88 87 86 85 85 85 86 86 86 86 86 85 85 85 84 84 84 83 83 83 83 83 83 83 84 84 84 83 83 83 83 83 83 83 83 83 83 84 84 85 86 87 88 89 89 90 90 90 90 89 87 85 84 82 81 81 80 80 80
86 87 89 90 92 93 93 94 94 93 93 93 92 92 92 92 92 92 92 91 91 91 90 90 89 88 88 87 86 85 84 84 84 84 85 85 85 85 85 84 84 84 84 83 83 83 83 82 83 83 83 83 83 83 83 83 82 82 82 82 82 83 82 83 83 84 85 86 87 88 89 89 90 90 91 90 90 88 87 85 84 83 82 81 81 81
86 88 90 91 92 93 94 94 94 94 94 93 93 92 92 91 91 91 91 91 90 90 89 89 88 87 87 86 85 84 83 83 82 83 83 84 84 85 84 84 84 83 83 83 82 82 82 81 81 81 81 81 81 81 81 81 81 81 81 81 81 81 82 82 83 83 84 85 87 88 89 89 90 91 91 91 91 90 88 87 86 84 83 82 82 81
87 88 90 91 93 94 94 95 94 94 94 93 93 92 92 91 91 90 90 90 89 89 88 87 86 86 85 85 84 83 83 82 82 82 82 83 83 84 84 83 83 82 82 81 81 80 80 79 79 79 79 79 79 79 79 79 79 79 79 79 79 80 80 81 81 81 83 84 86 87 88 89 90 90 91 91 91 91 90 89 87 86 84 83 83 82
87 89 90 92 93 94 94 95 95 94 94 93 93 92 92 91 90 90 89 88 88 87 86 85 85 84 84 83 83 83 82 82 82 81 81 82 82 82 82 82 81 81 80 79 78 78 77 77 77 76 76 76 76 76 76 76 76 76 76 77 77 77 78 79 79 80 81 82 84 86 87 88 89 90 91 92 92 92 91 90 89 87 86 85 84 83
87 89 90 92 93 94 94 95 95 95 94 94 93 92 91 90 90 89 88 87 86 85 85 84 83 83 82 82 82 82 82 82 81 81 80 80 80 80 80 80 79 79 78 77 76 75 75 74 74 74 73 73 73 74 74 74 74 74 74 74 75 75 76 76 77 78 79 80 82 84 85 87 88 89 91 91 92 92 92 91 90 89 87 86 85 84
87 89 91 92 93 94 95 95 95 95 94 94 93 92 91 90 89 88 87 86 85 84 83 82 82 81 81 81 81 81 81 81 80 80 79 79 78 78 77 77 77 76 75 74 74 73 72 72 71 71 71 71 71 71 71 71 71 72 72 72 72 73 74 74 75 76 77 78 80 81 83 85 86 88 90 91 92 92 92 92 91 90 88 87 86 85
88 90 91 93 94 94 95 95 95 94 94 93 93 91 90 89 88 87 85 84 83 82 81 81 81 80 80 80 80 80 80 79 79 78 78 77 76 75 75 74 74 74 73 72 72 71 70 69 69 68 68 68 68 69 69 69 69 69 70 70 70 71 71 72 73 73 74 76 77 79 81 83 85 87 88 90 91 91 92 92 92 91 89 88 87 86
88 90 91 93 94 94 95 95 95 94 94 93 92 91 90 88 87 85 84 83 82 81 80 80 79 79 80 80 79 79 78 78 77 76 75 75 74 73 72 72 71 71 71 70 69 69 68 67 67 66 66 66 66 66 66 67 67 67 67 68 68 69 69 70 71 71 72 74 75 77 78 80 83 85 86 88 89 91 91 92 92 91 90 89 88 87
89 90 92 93 94 94 95 95 94 94 93 92 92 90 89 87 86 84 83 82 80 80 79 79 79 79 79 78 78 78 77 76 75 74 73 72 71 70 70 69 69 68 68 68 67 66 66 65 64 64 63 63 63 63 64 64 64 65 65 66 66 67 67 68 69 69 70 71 73 74 76 78 80 82 84 86 88 89 90 91 91 91 91 90 89 88
89 91 92 93 94 94 94 94 94 93 93 92 91 89 88 86 85 83 82 80 79 79 78 78 78 78 77 77 77 76 75 74 73 72 71 70 69 68 68 67 66 66 65 65 65 64 64 63 62 62 61 61 61 61 61 62 62 62 63 64 64 65 65 66 67 67 68 69 71 72 74 76 78 80 82 84 86 88 89 90 91 91 91 90 89 88
Wind_Direction
265 265 266 266 266 266 266 266 267 267 267 267 267 268 268 268 268 268 269 269 269 269 270 270 270 270 271 271 271 271 272 272 272 272 273 273 273 273 274 274 274 274 275 275 275 276 276 276 276 276 276 276 276 276 276 276 276 276 276 276 276 276 276 276 276 277 277 277 277 277 277 277 277 277 277 277 277 277 277 277 277 277 277 277 277 277
265 266 266 266 266 267 267 267 267 267 267 267 268 268 268 268 268 268 268 269 269 269 269 269 270 270 270 270 271 271 271 272 272 272 272 272 273 273 273 273 274 274 274 275 275 275 275 276 276 276 276 276 276 276 276 276 276 276 276 276 276 276 276 276 276 276 276 276 276 276 276 276 276 276 276 276 277 277 276 276 276 276 276 276 277 277
265 266 266 266 267 267 267 267 267 267 267 268 268 268 268 268 268 268 268 268 268 269 269 269 269 269 270 270 270 271 271 271 271 272 272 272 272 272 273 273 273 273 274 274 274 275 275 275 275 276 276 276 276 276 276 276 276 276 276 276 276 276 276 276 276 276 276 276 276 276 276 275 275 275 275 275 276 276 276 276 276 275 275 276 276 276
265 266 266 266 266 267 267 267 267 267 267 267 268 268 268 268 268 268 268 268 268 269 269 269 269 269 269 270 270 270 270 271 271 271 272 272 272 272 272 272 273 273 273 273 274 274 274 274 275 275 276 276 276 276 276 276 276 276 276 276 276 276 276 276 275 275 275 275 275 275 275 275 275 274 274 274 274 275 275 275 275 275 275 275 275 275
265 266 266 266 266 266 267 267 267 267 267 267 267 268 268 268 268 268 268 268 268 268 269 269 269 269 269 269 270 270 270 270 271 271 271 271 272 272 272 272 272 272 273 273 273 274 274 274 274 275 275 275 276 276 276 276 276 276 276 276 276 276 275 275 275 275 275 275 275 274 274 274 274 274 274 274 274 274 274 274 274 274 274 274 273 273
266 266 266 266 266 266 267 267 267 267 267 267 267 267 268 268 268 268 268 268 268 268 269 269 269 269 269 269 269 269 270 270 270 271 271 271 271 272 272 272 272 272 272 273 273 273 274 274 274 274 275 275 275 275 276 276 276 276 276 276 276 275 275 275 275 275 275 274 274 274 274 274 273 273 273 273 273 273 273 273 273 273 273 273 272 272
266 266 266 266 266 267 267 267 267 267 267 267 267 267 268 268 268 268 268 268 268 268 268 269 269 269 269 269 269 269 269 270 270 270 270 271 271 271 271 272 272 272 272 273 273 273 273 274 274 274 275 275 275 275 275 275 276 276 276 276 276 276 275 275 275 274 274 274 274 274 274 273 273 273 273 272 272 272 272 272 272 272 272 272 272 271
266 266 266 267 267 267 267 267 267 267 267 268 268 268 268 268 268 268 268 268 268 268 268 269 269 269 269 269 269 269 269 269 270 270 270 270 271 271 271 271 272 272 272 273 273 273 273 274 274 274 274 275 275 275 275 275 275 275 275 276 276 276 275 275 275 275 274 274 274 274 273 273 273 273 273 272 272 272 272 272 272 271 271 271 271 271
266 267 267 267 267 267 267 267 267 268 268 268 268 268 268 268 268 268 268 268 268 268 269 269 269 269 269 269 269 269 269 269 270 270 270 270 270 271 271 271 272 272 272 272 273 273 273 273 274 274 274 275 275 275 275 275 275 275 275 275 275 275 275 275 275 275 275 274 274 273 273 273 273 273 273 272 272 271 271 271 271 271 271 271 270 270
267 267 267 267 267 267 268 268 268 268 268 268 268 268 269 269 269 269 269 269 269 269 269 269 269 269 269 269 269 270 270 270 270 270 270 270 271 271 271 271 272 272 272 272 273 273 273 273 274 274 274 274 275 275 275 275 275 275 275 275 275 275 275 275 275 275 275 274 274 274 273 273 273 273 273 272 272 271 271 271 271 271 270 270 270 270
267 267 267 268 268 268 268 268 268 269 269 269 269 269 269 269 269 269 269 270 270 269 269 269 269 269 270 270 270 270 270 270 270 270 271 271 271 271 272 272 272 272 272 273 273 273 273 273 274 274 274 274 275 275 275 275 275 275 275 275 275 275 275 275 275 275 275 275 274 274 274 273 273 273 273 272 272 272 271 271 271 270 270 270 269 269
267 268 268 268 268 269 269 269 269 269 269 269 269 270 270 270 270 270 270 270 270 270 270 270 270 270 270 270 270 271 271 271 271 271 271 271 272 272 272 272 272 273 273 273 273 273 273 273 274 274 274 274 274 274 274 275 275 275 275 275 274 274 274 274 274 274 274 274 274 274 274 274 273 273 272 272 272 271 271 271 270 270 269 269 269 268
268 268 268 269 269 269 269 269 270 270 270 270 270 270 270 270 270 270 270 270 270 271 271 271 271 271 271 271 271 271 271 271 272 272 272 272 272 272 273 273 273 273 273 273 273 274 274 274 274 274 274 274 274 274 274 274 274 274 274 274 274 274 274 274 274 274 274 274 274 274 274 274 273 273 272 272 271 271 271 270 270 269 269 268 268 267
268 269 269 269 269 270 270 270 270 270 270 271 271 271 271 271 271 271 271 271 271 271 271 272 272 272 272 272 272 272 272 272 272 273 273 273 273 273 273 273 273 273 273 273 274 274 274 274 274 274 274 274 274 274 274 274 274 274 274 274 274 274 274 274 274 274 274 274 274 274 273 273 273 272 272 271 271 270 270 270 269 269 268 267 267 266
269 269 269 269 270 270 270 271 271 271 271 271 271 271 271 272 272 272 272 272 272 272 272 272 272 273 273 273 273 273 273 273 273 273 274 274 274 274 274 274 274 273 273 273 273 273 273 274 273 273 273 273 273 273 273 273 273 273 273 273 273 273 273 273 273 273 273 273 273 273 273 272 272 272 271 271 270 270 270 269 269 268 267 267 266 265
269 269 270 270 270 271 271 271 271 271 272 272 272 272 272 272 272 272 272 273 273 273 273 273 273 273 273 274 274 274 274 274 274 274 274 275 275 274 274 274 274 274 274 274 273 273 273 273 273 273 273 273 273 273 273 273 273 273 273 273 273 273 273 273 273 273 273 273 272 272 272 271 271 271 270 270 270 269 269 268 268 267 267 266 265 264
270 270 270 271 271 271 271 272 272 272 272 272 272 272 273 273 273 273 273 273 273 274 274 274 274 274 274 274 274 275 275 275 275 275 275 275 275 275 275 275 275 275 274 274 274 274 273 273 273 273 273 273 273 273 273 273 273 273 273 273 273 273 273 272 273 272 272 272 272 271 271 271 270 270 270 269 269 269 268 268 267 267 266 265 264 263
270 271 271 271 271 272 272 272 272 272 272 273 273 273 273 273 273 273 274 274 274 274 274 274 275 275 275 275 275 275 276 276 276 276 276 276 276 276 275 275 275 275 275 275 275 274 274 274 274 273 273 273 273 273 273 273 273 273 273 273 273 272 272 272 272 272 272 271 271 271 270 270 270 269 269 269 268 268 267 267 266 266 265 264 263 262
271 271 271 271 272 272 272 272 272 272 273 273 273 273 273 273 273 273 274 274 274 274 274 275 275 275 275 276 276 276 276 276 276 276 276 276 276 276 276 276 276 276 275 275 275 275 274 274 274 274 273 273 273 273 273 273 273 273 272 272 272 272 272 272 272 271 271 271 270 270 270 269 269 269 268 268 267 267 266 266 265 264 264 263 262 261
271 271 272 272 272 272 272 272 272 273 273 273 273 273 273 273 274 274 274 274 274 274 274 275 275 275 275 276 276 276 276 276 277 277 277 277 277 277 277 276 276 276 276 275 275 275 275 274 274 274 274 273 273 273 273 272 272 272 272 272 272 272 272 271 271 271 271 270 270 270 269 269 268 268 267 267 266 266 265 265 264 263 263 262 261 260
272 272 272 273 273 273 273 273 273 274 274 274 274 274 274 274 274 274 275 275 275 275 275 275 275 275 276 276 276 276 276 276 276 276 276 277 277 277 277 277 277 276 276 276 275 275 275 274 274 274 274 273 273 273 272 272 272 272 272 272 272 271 271 271 271 270 270 270 269 269 269 268 267 267 266 266 265 265 264 264 263 262 262 261 260 259
273 273 273 274 274 274 274 275 275 275 275 275 275 275 275 275 276 276 276 276 276 276 276 276 276 276 276 276 276 276 276 276 276 276 276 276 276 276 276 276 276 276 276 276 276 275 275 275 274 274 274 273 273 272 272 272 271 271 271 271 271 271 271 271 270 270 269 269 269 268 268 267 267 266 265 265 264 264 263 263 262 261 261 260 259 258
273 274 274 274 275 275 275 275 276 276 276 276 276 276 276 277 277 277 277 277 278 278 278 278 278 278 278 277 277 277 277 276 276 276 276 276 276 276 276 276 276 276 276 276 276 276 275 275 275 274 274 273 273 272 272 271 271 271 270 270 270 270 270 270 270 269 269 268 268 268 267 267 266 266 265 264 263 263 262 262 261 260 260 259 258 257
274 274 274 275 275 275 275 276 276 276 276 277 277 277 277 277 278 278 278 278 278 279 279 279 279 279 279 278 278 278 277 277 277 276 276 276 276 275 275 275 275 275 275 275 275 275 275 275 275 275 274 274 273 273 272 272 271 270 270 270 269 269 269 269 269 268 268 268 267 267 266 266 266 265 264 263 263 262 261 261 260 259 259 258 257 256
274 274 275 275 275 276 276 276 276 277 277 277 277 278 278 278 278 279 279 279 279 279 279 279 279 279 279 279 279 279 278 278 277 277 277 276 276 275 275 275 274 274 274 274 274 274 274 274 274 274 274 274 274 273 273 272 272 271 270 269 269 268 268 267 267 267 267 267 267 266 266 265 265 264 263 263 262 261 260 260 259 258 258 257 256 255
275 275 275 276 276 276 277 277 277 277 277 278 278 278 278 279 279 279 279 279 280 280 280 280 280 280 280 280 279 279 279 279 278 278 277 277 276 276 275 275 274 274 274 274 273 273 273 273 273 274 274 274 274 274 273 273 272 272 271 270 269 268 267 266 266 266 266 266 266 265 265 264 264 263 263 262 261 260 259 259 258 257 257 256 255 254
276 276 276 277 277 277 277 277 278 278 278 278 278 279 279 279 279 280 280 280 280 280 280 280 280 280 280 280 279 279 279 279 279 278 278 277 277 276 276 275 275 274 274 273 273 273 272 272 272 272 272 273 273 273 273 273 272 272 271 271 270 269 267 266 265 265 264 264 264 264 264 263 263 262 262 261 260 259 259 258 257 256 256 255 254 254
277 277 277 278 278 278 278 278 278 278 278 279 279 279 279 280 280 280 280 280 280 280 280 280 280 280 280 279 279 279 279 279 278 278 278 277 277 276 276 276 275 275 274 274 273 273 272 272 271 271 271 271 271 272 272 272 272 272 271 271 270 269 268 267 266 265 264 263 263 262 262 262 261 261 260 260 259 259 258 257 256 255 255 254 254 253
278 278 278 278 279 279 279 279 279 279 279 279 280 280 280 280 281 281 281 281 281 281 281 280 280 280 280 279 279 279 279 278 278 278 278 277 277 276 276 275 275 275 274 274 273 273 272 272 271 271 270 270 270 270 270 270 270 270 270 270 270 269 269 268 267 265 264 263 262 261 261 261 260 260 259 259 258 258 257 256 255 255 254 253 253 252
279 279 279 279 280 280 280 280 280 280 280 281 281 281 281 281 282 282 282 282 282 282 282 281 281 281 280 280 280 280 279 278 278 278 278 277 277 276 276 275 275 274 274 274 273 273 272 272 271 271 270 270 269 269 269 269 269 269 269 269 269 268 268 268 267 266 265 263 262 261 260 259 259 259 258 258 257 257 256 255 255 254 253 252 252 251
281 281 281 282 282 282 282 282 282 282 282 282 282 283 283 283 283 283 283 284 284 284 283 283 283 282 282 282 282 281 281 280 279 279 278 278 277 277 276 276 275 275 274 273 273 273 272 272 271 271 270 269 269 268 268 268 267 267 267 267 267 267 267 267 266 266 265 264 263 261 260 259 258 257 257 257 256 256 255 255 254 253 252 251 251 250
284 284 284 284 284 284 284 284 284 284 284 284 284 284 285 285 285 285 285 285 285 285 285 285 285 285 284 284 284 283 283 282 281 280 280 279 279 278 277 276 276 275 274 274 273 273 272 272 271 271 270 269 269 268 267 267 266 266 266 265 265 265 265 265 265 265 264 264 263 262 260 259 257 257 256 256 255 255 254 253 253 252 251 251 250 249
286 286 286 286 286 285 285 285 285 285 286 286 286 286 287 287 287 287 287 287 287 288 287 287 287 287 287 286 286 285 285 284 283 282 282 281 280 279 278 278 277 276 275 274 274 273 272 272 271 271 270 270 269 268 267 266 266 265 265 264 264 263 263 263 263 263 263 263 263 262 261 259 258 256 255 254 254 253 253 252 252 251 250 250 249 249
287 287 287 287 287 287 287 287 287 287 287 288 288 288 289 289 289 289 289 289 289 289 289 289 289 289 288 288 288 287 286 286 285 284 283 283 282 281 280 279 278 277 277 276 275 274 273 272 272 271 270 270 269 268 267 266 265 265 264 263 263 262 262 261 261 261 261 261 261 261 260 259 258 256 255 254 253 252 252 251 250 249 249 248 248 248
288 288 288 288 288 288 288 288 288 289 289 289 289 290 290 290 290 290 290 290 290 290 290 290 289 289 289 289 289 288 288 287 286 285 285 284 283 282 282 281 280 279 278 277 276 275 274 273 272 271 271 270 269 268 267 266 265 264 263 263 262 261 261 260 260 259 259 259 260 260 259 259 258 256 255 254 252 251 251 250 249 248 247 247 247 246
290 290 290 290 290 290 290 290 290 290 290 290 290 291 291 291 291 291 291 291 291 291 291 290 290 290 290 289 289 289 288 288 287 286 286 285 284 283 283 282 281 280 279 278 277 276 275 273 272 272 271 270 269 268 267 266 265 264 263 262 261 260 260 259 258 258 258 257 258 258 258 258 257 256 255 253 252 251 250 249 248 247 246 246 245 245
291 291 291 291 291 291 291 291 291 291 291 291 292 292 292 292 292 292 292 292 292 291 291 291 291 290 290 290 289 289 289 288 288 287 286 285 285 284 283 282 281 280 279 278 277 276 275 274 273 272 271 270 269 268 267 266 265 264 262 262 261 260 259 258 257 257 256 256 256 256 256 256 256 256 255 253 252 251 250 249 248 246 245 245 244 244
292 292 292 292 292 292 292 292 292 292 292 292 293 293 293 293 293 293 293 293 292 292 292 291 291 291 290 290 290 289 289 288 288 287 286 286 285 284 283 283 282 281 280 279 278 277 276 275 273 272 271 270 269 268 267 266 265 264 262 261 260 259 258 257 257 256 255 255 254 254 254 255 255 255 254 253 252 251 249 248 247 246 245 244 243 243
293 293 293 292 292 292 292 292 293 293 293 294 294 294 294 294 294 294 294 294 293 293 292 292 292 291 291 290 290 289 288 288 287 287 286 286 285 284 284 283 282 281 280 279 278 277 276 275 274 273 272 270 269 268 267 266 265 264 262 261 260 258 257 256 255 255 254 253 253 253 253 253 253 253 253 252 251 250 249 248 246 245 244 243 242 242
293 293 293 293 293 293 293 293 293 294 294 294 295 295 295 295 295 295 295 294 294 293 293 292 292 291 291 290 290 289 289 288 287 287 286 286 285 284 284 283 282 282 281 280 279 278 277 275 274 273 272 271 270 268 267 266 265 264 262 261 259 258 257 256 255 254 253 252 252 251 251 251 251 251 251 251 251 250 248 247 246 245 243 242 242 241
294 294 294 294 294 294 294 294 294 294 295 295 295 296 296 296 296 296 295 295 294 294 293 293 292 292 291 290 290 289 289 288 288 287 286 286 285 285 284 283 283 282 281 280 279 278 277 276 275 273 272 271 270 269 267 266 265 263 262 261 259 258 257 255 254 253 252 251 251 250 250 250 250 250 250 250 250 249 248 247 245 244 243 241 241 240
294 294 294 294 294 294 294 295 295 295 295 296 296 296 296 296 296 296 296 296 295 295 294 293 293 292 292 291 290 290 289 288 288 287 287 286 286 285 285 284 283 282 281 280 279 278 277 276 275 274 272 271 270 269 267 266 265 263 262 260 259 258 256 255 253 252 251 250 249 249 248 248 248 248 248 248 248 248 247 246 245 243 242 241 240 239
295 295 295 295 295 295 295 295 296 296 296 296 297 297 297 297 297 297 297 296 296 295 295 294 294 293 292 292 291 290 290 289 288 288 287 287 286 286 285 284 283 283 282 281 280 278 277 276 275 273 272 271 270 269 267 266 265 263 262 260 259 257 256 254 253 251 250 249 248 248 247 247 247 247 247 247 247 247 246 245 244 243 242 240 239 238
296 296 296 296 296 296 296 296 296 296 297 297 297 298 298 298 298 297 297 297 296 296 295 295 294 294 293 292 292 291 290 290 289 289 288 288 287 286 286 285 284 283 282 281 280 279 277 276 275 274 272 271 270 268 267 266 264 263 261 260 258 257 255 254 253 251 249 248 247 247 246 246 245 245 245 245 245 245 245 244 243 242 241 240 239 238
296 296 296 296 296 296 297 297 297 297 298 298 298 298 298 298 298 298 298 297 297 296 296 295 295 294 294 293 292 292 291 291 290 289 289 288 288 287 286 285 284 283 282 281 280 279 278 276 275 274 272 271 270 268 267 266 264 263 261 260 258 257 255 254 252 251 249 248 247 246 245 245 244 244 244 244 244 244 244 243 242 241 240 239 238 237
297 297 297 297 297 297 297 298 298 298 298 299 299 299 299 299 299 299 298 298 298 297 296 296 295 295 294 294 293 293 292 292 291 290 290 289 288 287 287 286 285 284 283 281 280 279 278 276 275 274 272 271 269 268 267 265 264 263 261 260 258 256 255 253 252 250 249 247 246 245 244 244 243 243 243 243 243 243 243 242 242 241 240 238 237 236
298 298 298 298 298 298 298 298 299 299 299 300 300 300 300 300 300 299 299 299 298 298 297 296 296 295 295 294 294 294 293 293 292 291 291 290 289 288 287 286 285 284 283 282 280 279 278 276 275 274 272 271 269 268 267 265 264 262 261 259 258 256 254 253 251 250 248 247 246 245 244 243 242 242 241 241 242 242 241 241 241 240 239 238 237 235
299 299 299 299 299 299 299 299 300 300 300 301 301 301 301 301 301 300 300 299 299 298 298 297 297 296 296 295 295 295 294 294 293 292 291 290 289 288 287 286 285 284 283 282 281 279 278 276 275 274 272 271 269 268 267 265 264 262 261 259 258 256 254 253 251 250 248 247 245 244 243 242 241 241 241 240 240 240 240 240 240 239 238 237 236 235
300 300 300 300 300 300 300 300 301 301 301 302 302 302 302 301 301 301 300 300 299 299 298 298 298 297 297 297 296 296 295 294 294 293 292 291 290 289 288 286 285 284 283 282 281 279 278 276 275 274 272 271 269 268 266 265 263 262 261 259 257 256 254 252 251 249 248 246 245 243 242 241 241 240 240 239 239 239 239 239 239 238 237 236 235 234
301 301 301 301 301 301 301 301 302 302 302 303 303 303 302 302 302 301 301 301 300 300 299 299 299 298 298 298 297 297 296 295 294 293 292 291 290 289 288 287 285 284 283 282 281 280 278 277 275 274 272 271 269 268 266 265 263 262 260 259 257 256 254 252 250 249 247 246 244 243 242 241 240 239 239 238 238 238 238 238 238 237 237 236 235 233
302 302 302 302 302 302 302 302 303 303 303 303 303 303 303 303 302 302 302 301 301 300 300 300 300 299 299 299 298 297 297 296 295 294 293 292 291 289 288 287 286 284 283 282 281 280 278 277 275 274 272 271 269 268 266 265 263 262 260 259 257 255 254 252 250 249 247 245 244 243 241 240 239 238 238 237 237 237 237 237 237 236 236 235 234 233
Height
10575 10575 10576 10577 10576 10576 10575 10576 10576 10576 10575 10575 10575 10575 10574 10574 10573 10572 10572 10571 10570 10570 10569 10569 10569 10568 10567 10567 10566 10565 10565 10565 10566 10566 10567 10567 10567 10567 10567 10567 10568 10568 10568 10568 10569 10569 10570 10571 10572 10572 10574 10575 10575 10577 10577 10579 10579 10580 10582 10583 10584 10585 10586 10587 10588 10589 10590 10590 10592 10592 10593 10594 10594 10594 10594 10595 10595 10597 10598 10599 10600 10600 10600 10602 10603 10604
10570 10570 10570 10570 10570 10569 10569 10569 10570 10570 10569 10568 10568 10568 10567 10567 10566 10565 10565 10564 10564 10563 10563 10562 10562 10561 10560 10559 10559 10559 10558 10558 10559 10559 10559 10559 10559 10559 10559 10560 10560 10560 10560 10560 10560 10561 10562 10562 10563 10564 10565 10566 10568 10569 10569 10570 10571 10572 10574 10575 10576 10577 10579 10580 10581 10582 10583 10584 10584 10585 10586 10587 10588 10588 10588 10589 10589 10590 10591 10592 10594 10594 10595 10596 10597 10599
10565 10565 10564 10564 10564 10563 10562 10562 10563 10563 10562 10561 10561 10561 10560 10560 10559 10558 10557 10557 10557 10556 10555 10555 10554 10554 10553 10552 10552 10551 10551 10551 10551 10551 10551 10551 10552 10552 10552 10552 10552 10552 10553 10553 10553 10554 10554 10554 10554 10555 10555 10557 10559 10560 10562 10562 10563 10564 10565 10567 10569 10570 10571 10572 10573 10574 10575 10576 10577 10578 10579 10580 10581 10582 10582 10582 10582 10583 10584 10585 10587 10588 10589 10590 10591 10592
10559 10559 10558 10558 10557 10557 10556 10555 10555 10555 10555 10554 10554 10554 10553 10552 10551 10550 10550 10550 10549 10549 10548 10547 10547 10547 10546 10545 10545 10544 10544 10544 10544 10544 10544 10544 10544 10544 10544 10545 10545 10545 10545 10545 10545 10545 10545 10546 10547 10547 10547 10548 10550 10552 10553 10554 10555 10556 10557 10559 10560 10562 10564 10565 10565 10567 10567 10569 10570 10570 10572 10573 10574 10575 10575 10575 10575 10576 10577 10579 10580 10581 10582 10584 10585 10586
10553 10552 10552 10552 10551 10550 10550 10549 10549 10549 10548 10547 10547 10546 10546 10545 10544 10543 10543 10542 10542 10541 10540 10540 10540 10539 10539 10539 10538 10537 10537 10537 10536 10536 10536 10536 10536 10536 10537 10537 10537 10537 10538 10538 10538 10538 10538 10538 10538 10539 10539 10539 10541 10543 10544 10545 10547 10548 10549 10550 10552 10554 10555 10557 10558 10559 10560 10561 10562 10563 10564 10565 10567 10567 10568 10569 10569 10569 10570 10571 10572 10574 10575 10577 10578 10579
10546 10546 10545 10545 10544 10544 10543 10543 10542 10542 10541 10540 10540 10539 10539 10537 10537 10536 10535 10535 10534 10534 10533 10532 10532 10532 10531 10531 10530 10530 10530 10530 10529 10529 10529 10529 10528 10529 10529 10529 10529 10530 10530 10530 10530 10530 10530 10531 10531 10531 10531 10532 10533 10534 10536 10537 10539 10540 10540 10542 10543 10545 10547 10548 10549 10550 10552 10553 10554 10555 10556 10558 10559 10560 10561 10562 10562 10562 10563 10564 10565 10567 10568 10570 10571 10572
10539 10539 10539 10539 10538 10537 10536 10536 10535 10535 10534 10534 10532 10532 10531 10530 10530 10529 10528 10527 10527 10526 10525 10525 10524 10524 10523 10523 10523 10523 10523 10522 10522 10522 10521 10521 10521 10520 10521 10521 10522 10522 10522 10523 10523 10523 10523 10524 10524 10524 10524 10524 10525 10526 10528 10529 10530 10531 10532 10534 10535 10536 10537 10539 10540 10542 10544 10545 10545 10547 10547 10549 10550 10552 10554 10555 10555 10555 10555 10557 10558 10559 10560 10562 10564 10565
10532 10532 10532 10532 10531 10530 10530 10529 10529 10528 10527 10526 10525 10525 10524 10523 10522 10522 10520 10520 10519 10519 10518 10517 10516 10515 10515 10515 10515 10515 10515 10515 10515 10514 10514 10514 10514 10514 10514 10514 10514 10515 10515 10515 10515 10515 10515 10516 10516 10516 10516 10516 10517 10519 10520 10522 10522 10523 10524 10524 10525 10527 10528 10529 10530 10532 10534 10536 10537 10539 10539 10540 10541 10543 10545 10547 10548 10548 10549 10549 10550 10551 10553 10554 10556 10557
10526 10525 10525 10525 10524 10524 10523 10522 10522 10521 10520 10519 10518 10517 10517 10515 10515 10514 10514 10512 10512 10511 10510 10510 10509 10508 10507 10507 10507 10507 10508 10507 10507 10507 10507 10506 10506 10506 10507 10507 10507 10507 10507 10508 10508 10508 10509 10509 10509 10509 10509 10509 10509 10510 10512 10513 10514 10515 10515 10516 10517 10517 10519 10520 10521 10522 10524 10527 10529 10530 10531 10532 10533 10534 10536 10538 10540 10541 10542 10542 10543 10544 10545 10546 10548 10550
10519 10519 10518 10517 10517 10517 10516 10515 10514 10514 10513 10512 10511 10510 10510 10509 10508 10507 10506 10505 10504 10504 10504 10502 10502 10500 10500 10500 10500 10500 10500 10500 10500 10500 10499 10499 10499 10499 10499 10500 10500 10500 10500 10500 10501 10501 10501 10501 10501 10501 10501 10501 10502 10502 10504 10505 10506 10507 10507 10508 10509 10509 10510 10511 10512 10514 10515 10517 10519 10521 10522 10524 10525 10527 10527 10529 10530 10532 10534 10535 10536 10537 10537 10538 10540 10541
10513 10512 10512 10511 10510 10510 10509 10509 10507 10507 10506 10505 10504 10504 10503 10502 10501 10500 10499 10497 10497 10496 10495 10495 10494 10494 10493 10492 10492 10492 10492 10492 10492 10492 10492 10492 10492 10492 10492 10493 10493 10493 10493 10494 10494 10494 10494 10494 10494 10494 10494 10494 10494 10494 10495 10496 10497 10498 10499 10500 10500 10501 10502 10503 10504 10505 10506 10508 10510 10512 10514 10515 10517 10519 10520 10520 10521 10522 10524 10526 10528 10529 10530 10530 10532 10533
10506 10505 10505 10504 10504 10503 10502 10502 10501 10500 10499 10499 10497 10497 10496 10495 10494 10493 10492 10490 10489 10489 10488 10487 10487 10486 10485 10485 10485 10485 10485 10485 10485 10485 10485 10485 10485 10485 10485 10486 10486 10486 10486 10486 10486 10486 10487 10487 10487 10486 10486 10486 10486 10486 10487 10488 10489 10490 10490 10491 10492 10493 10494 10494 10495 10497 10498 10499 10501 10503 10504 10507 10509 10510 10512 10512 10512 10514 10515 10517 10519 10521 10522 10524 10524 10525
10500 10499 10499 10498 10497 10497 10496 10495 10494 10493 10492 10492 10490 10489 10488 10487 10487 10486 10485 10484 10483 10482 10481 10480 10479 10478 10478 10478 10478 10478 10479 10479 10479 10479 10479 10478 10478 10478 10479 10479 10479 10479 10479 10479 10479 10478 10479 10479 10479 10479 10478 10478 10478 10478 10479 10479 10480 10481 10482 10483 10484 10484 10485 10485 10487 10489 10490 10492 10493 10495 10496 10498 10499 10501 10502 10504 10504 10505 10507 10509 10510 10513 10514 10516 10517 10517
10494 10493 10492 10491 10490 10490 10489 10488 10487 10486 10485 10484 10483 10482 10481 10480 10479 10479 10477 10477 10476 10475 10475 10474 10472 10470 10470 10470 10470 10470 10471 10472 10472 10472 10472 10470 10470 10470 10472 10472 10472 10472 10472 10472 10470 10470 10470 10470 10470 10470 10470 10470 10470 10470 10470 10471 10472 10473 10474 10474 10475 10475 10476 10477 10479 10480 10482 10484 10485 10487 10488 10489 10490 10492 10494 10494 10495 10497 10498 10500 10502 10504 10507 10508 10509 10510
10487 10487 10485 10485 10484 10484 10482 10482 10480 10479 10478 10477 10476 10475 10474 10473 10472 10471 10470 10469 10469 10469 10468 10467 10465 10464 10463 10462 10462 10462 10464 10464 10465 10465 10464 10463 10462 10463 10464 10464 10464 10464 10464 10464 10463 10462 10462 10462 10462 10461 10461 10461 10461 10462 10462 10463 10464 10464 10465 10465 10466 10467 10468 10469 10470 10472 10474 10476 10477 10479 10479 10480 10482 10483 10484 10485 10487 10488 10490 10492 10494 10496 10498 10500 10501 10502
10481 10480 10479 10479 10477 10477 10476 10475 10474 10472 10471 10470 10469 10468 10467 10465 10465 10464 10463 10462 10461 10461 10460 10460 10459 10457 10456 10455 10455 10455 10456 10457 10457 10457 10457 10455 10454 10454 10455 10455 10455 10455 10455 10455 10455 10454 10454 10454 10454 10453 10453 10453 10453 10453 10454 10455 10455 10455 10456 10457 10457 10459 10459 10461 10462 10464 10467 10468 10469 10470 10470 10472 10473 10474 10475 10477 10479 10480 10482 10483 10485 10487 10490 10492 10493 10494
10475 10474 10473 10472 10471 10470 10469 10468 10467 10465 10464 10463 10462 10461 10460 10459 10457 10457 10455 10455 10454 10454 10453 10452 10452 10450 10449 10448 10447 10447 10449 10449 10449 10450 10450 10449 10447 10446 10447 10447 10446 10446 10447 10447 10446 10445 10445 10446 10445 10445 10445 10445 10445 10445 10445 10446 10447 10447 10448 10449 10449 10450 10451 10453 10454 10456 10458 10459 10460 10461 10462 10463 10464 10466 10467 10469 10470 10472 10474 10475 10477 10479 10481 10483 10485 10486
10469 10468 10467 10465 10465 10463 10462 10461 10460 10459 10457 10456 10455 10454 10452 10451 10450 10449 10449 10448 10447 10447 10445 10445 10444 10443 10442 10441 10440 10440 10442 10442 10441 10441 10442 10440 10439 10438 10439 10439 10438 10437 10437 10437 10437 10436 10437 10437 10436 10436 10436 10436 10437 10437 10437 10438 10438 10439 10439 10440 10440 10442 10443 10444 10446 10448 10449 10450 10451 10452 10454 10455 10457 10458 10459 10461 10462 10464 10465 10467 10469 10470 10472 10474 10476 10478
10462 10462 10460 10459 10458 10457 10455 10454 10453 10452 10450 10449 10448 10447 10445 10444 10443 10442 10442 10440 10440 10440 10439 10438 10437 10436 10435 10434 10433 10432 10434 10435 10434 10432 10433 10432 10431 10430 10430 10430 10429 10429 10428 10428 10427 10427 10427 10427 10427 10427 10427 10427 10428 10429 10429 10430 10430 10430 10430 10431 10432 10433 10434 10436 10438 10439 10440 10441 10442 10444 10445 10447 10449 10450 10452 10453 10454 10455 10457 10459 10460 10462 10464 10466 10468 10470
10455 10455 10454 10453 10451 10450 10448 10447 10446 10445 10444 10442 10441 10439 10438 10437 10436 10435 10434 10434 10433 10432 10432 10431 10430 10429 10429 10428 10427 10425 10427 10427 10427 10425 10425 10425 10424 10422 10421 10421 10420 10420 10419 10419 10419 10418 10419 10418 10418 10418 10418 10418 10419 10419 10420 10421 10422 10422 10422 10423 10424 10424 10426 10427 10429 10430 10432 10432 10434 10435 10437 10439 10440 10442 10444 10445 10446 10447 10449 10450 10452 10454 10455 10457 10459 10462
10449 10448 10447 10446 10444 10442 10441 10440 10439 10437 10436 10435 10434 10432 10430 10430 10429 10427 10426 10426 10425 10425 10424 10424 10423 10422 10422 10421 10420 10419 10419 10420 10419 10418 10418 10418 10416 10414 10412 10412 10412 10410 10410 10409 10409 10409 10409 10409 10409 10409 10409 10409 10409 10410 10411 10412 10413 10414 10414 10415 10415 10416 10417 10419 10420 10422 10423 10424 10425 10426 10428 10430 10432 10434 10435 10437 10438 10439 10440 10442 10444 10445 10447 10449 10451 10454
10443 10441 10440 10439 10437 10436 10434 10432 10431 10430 10429 10427 10426 10424 10423 10422 10421 10420 10419 10419 10418 10417 10416 10415 10415 10414 10414 10413 10412 10411 10412 10412 10412 10411 10411 10411 10409 10407 10405 10405 10404 10402 10401 10400 10400 10400 10400 10400 10399 10399 10399 10400 10400 10401 10402 10404 10404 10405 10406 10407 10407 10409 10409 10410 10411 10412 10414 10415 10417 10418 10419 10422 10424 10425 10427 10429 10430 10431 10433 10434 10435 10437 10439 10441 10443 10445
10437 10435 10434 10432 10431 10429 10427 10426 10424 10422 10421 10420 10419 10417 10415 10415 10414 10412 10411 10410 10410 10409 10408 10407 10407 10405 10405 10404 10403 10402 10403 10404 10404 10404 10404 10404 10402 10399 10399 10398 10397 10394 10393 10392 10392 10391 10391 10390 10390 10390 10390 10390 10391 10392 10393 10394 10396 10397 10398 10399 10400 10400 10401 10402 10403 10404 10405 10407 10408 10410 10411 10413 10415 10417 10419 10420 10422 10424 10425 10426 10428 10429 10431 10434 10435 10437
10431 10429 10428 10426 10425 10423 10422 10420 10418 10416 10414 10413 10411 10410 10409 10407 10406 10405 10404 10403 10402 10402 10400 10399 10399 10397 10395 10395 10394 10394 10393 10394 10395 10396 10396 10395 10394 10392 10391 10390 10389 10387 10385 10384 10384 10384 10382 10382 10380 10380 10380 10381 10381 10382 10384 10385 10387 10389 10390 10391 10392 10393 10394 10394 10395 10395 10397 10398 10400 10402 10403 10405 10406 10408 10410 10412 10414 10415 10417 10419 10420 10422 10424 10425 10427 10430
10425 10424 10422 10420 10419 10417 10415 10414 10412 10410 10408 10406 10405 10403 10402 10400 10399 10398 10397 10396 10395 10394 10393 10392 10390 10389 10387 10387 10385 10384 10384 10385 10386 10387 10387 10386 10385 10384 10383 10382 10382 10380 10377 10377 10376 10376 10375 10373 10372 10372 10372 10372 10372 10372 10374 10375 10377 10379 10380 10382 10384 10385 10385 10386 10387 10387 10389 10390 10391 10393 10395 10396 10398 10399 10401 10404 10406 10408 10409 10410 10412 10414 10416 10418 10420 10422
10420 10418 10416 10414 10412 10410 10409 10407 10405 10404 10402 10400 10399 10397 10395 10394 10392 10390 10389 10389 10388 10387 10386 10385 10383 10381 10379 10379 10377 10375 10374 10375 10377 10377 10377 10377 10376 10375 10374 10374 10373 10372 10370 10369 10369 10368 10367 10365 10364 10364 10364 10363 10363 10363 10364 10365 10367 10369 10371 10373 10374 10375 10377 10378 10379 10380 10381 10382 10383 10385 10386 10388 10389 10391 10393 10395 10397 10399 10402 10403 10405 10407 10409 10410 10412 10414
10414 10412 10410 10408 10406 10404 10402 10400 10399 10397 10395 10394 10392 10390 10389 10387 10386 10384 10382 10381 10380 10380 10379 10377 10375 10374 10372 10370 10369 10367 10366 10367 10367 10367 10368 10368 10367 10365 10364 10364 10364 10364 10362 10361 10360 10360 10359 10357 10356 10356 10355 10355 10355 10355 10355 10356 10357 10359 10361 10362 10364 10365 10367 10369 10370 10372 10374 10374 10375 10376 10378 10379 10381 10383 10385 10387 10389 10391 10394 10395 10398 10399 10401 10403 10404 10406
10407 10405 10404 10402 10400 10397 10395 10394 10392 10390 10389 10387 10385 10384 10383 10382 10380 10377 10375 10374 10374 10372 10370 10369 10368 10366 10364 10363 10361 10359 10358 10358 10357 10358 10359 10359 10358 10355 10354 10355 10355 10354 10353 10352 10351 10350 10350 10349 10347 10347 10348 10347 10347 10347 10347 10348 10349 10350 10351 10352 10354 10355 10357 10359 10361 10363 10365 10366 10367 10369 10370 10371 10373 10375 10377 10379 10380 10383 10385 10388 10390 10392 10394 10395 10397 10399
10401 10399 10397 10395 10393 10391 10389 10387 10385 10384 10382 10380 10379 10377 10376 10375 10374 10371 10369 10367 10366 10365 10363 10361 10360 10359 10357 10355 10353 10351 10350 10349 10349 10349 10350 10350 10348 10346 10345 10345 10345 10344 10344 10343 10342 10341 10340 10339 10338 10339 10339 10339 10339 10339 10339 10340 10340 10342 10342 10344 10344 10345 10347 10349 10350 10353 10355 10357 10359 10360 10362 10363 10365 10367 10369 10370 10373 10375 10377 10380 10383 10385 10387 10389 10390 10392
10395 10393 10390 10389 10387 10384 10382 10380 10378 10376 10374 10373 10372 10370 10369 10368 10366 10364 10362 10360 10359 10357 10355 10353 10352 10350 10349 10347 10345 10343 10341 10340 10340 10340 10341 10340 10339 10336 10335 10336 10335 10334 10334 10335 10334 10331 10329 10328 10328 10329 10330 10330 10330 10331 10331 10332 10332 10333 10334 10335 10335 10336 10337 10339 10340 10342 10344 10347 10349 10352 10354 10355 10357 10359 10360 10363 10365 10367 10370 10373 10375 10378 10380 10382 10383 10385
10389 10386 10384 10381 10379 10377 10375 10372 10370 10369 10367 10365 10364 10362 10361 10360 10359 10357 10354 10352 10351 10349 10347 10345 10343 10342 10340 10339 10337 10335 10332 10330 10330 10331 10332 10331 10329 10327 10327 10327 10325 10324 10325 10325 10325 10322 10319 10317 10317 10319 10320 10322 10322 10322 10322 10323 10324 10325 10325 10326 10327 10327 10328 10329 10330 10332 10334 10335 10339 10341 10344 10347 10349 10350 10352 10355 10357 10359 10362 10365 10368 10370 10373 10375 10376 10377
10381 10379 10376 10374 10371 10369 10367 10365 10363 10361 10359 10357 10356 10355 10353 10352 10350 10348 10346 10344 10342 10340 10339 10336 10334 10333 10331 10330 10328 10325 10323 10322 10321 10321 10321 10320 10318 10317 10317 10317 10315 10314 10314 10315 10315 10314 10310 10308 10307 10307 10310 10311 10312 10312 10313 10314 10315 10316 10317 10317 10318 10319 10319 10320 10322 10322 10324 10325 10327 10330 10334 10337 10340 10342 10344 10347 10349 10352 10354 10357 10360 10363 10365 10367 10369 10370
10374 10372 10369 10367 10364 10362 10360 10357 10355 10354 10352 10350 10349 10347 10345 10344 10342 10340 10337 10335 10334 10332 10330 10327 10325 10324 10322 10320 10319 10316 10314 10312 10311 10310 10310 10310 10307 10306 10305 10306 10305 10304 10304 10304 10305 10304 10302 10299 10297 10297 10298 10300 10301 10302 10304 10305 10305 10307 10307 10309 10309 10310 10310 10312 10313 10314 10314 10315 10317 10319 10322 10326 10330 10333 10335 10339 10341 10344 10346 10349 10352 10355 10358 10360 10361 10363
10368 10365 10362 10360 10357 10354 10352 10350 10348 10346 10344 10342 10340 10339 10337 10335 10333 10331 10329 10327 10325 10323 10321 10319 10317 10315 10313 10311 10309 10306 10304 10302 10301 10300 10300 10299 10297 10295 10295 10295 10294 10294 10294 10294 10294 10293 10292 10290 10289 10287 10287 10288 10290 10292 10294 10295 10295 10297 10298 10299 10300 10300 10301 10303 10305 10305 10305 10306 10307 10309 10312 10315 10319 10323 10326 10329 10332 10334 10337 10340 10344 10347 10350 10352 10354 10355
10362 10359 10356 10353 10350 10347 10344 10342 10340 10338 10337 10335 10333 10331 10329 10327 10325 10323 10320 10318 10316 10314 10312 10310 10309 10307 10305 10302 10300 10297 10294 10292 10290 10289 10289 10287 10286 10285 10284 10284 10283 10283 10284 10282 10282 10282 10282 10280 10279 10279 10277 10277 10278 10280 10282 10284 10286 10287 10289 10289 10290 10291 10292 10294 10295 10296 10296 10297 10298 10299 10301 10304 10308 10312 10316 10319 10322 10325 10328 10331 10335 10338 10341 10344 10346 10348
10355 10352 10349 10346 10343 10340 10337 10334 10332 10330 10329 10327 10325 10323 10321 10319 10317 10314 10312 10309 10307 10305 10303 10301 10299 10298 10296 10294 10291 10288 10284 10282 10280 10279 10277 10276 10275 10275 10274 10272 10272 10272 10272 10272 10270 10270 10271 10270 10269 10269 10269 10267 10267 10268 10270 10273 10275 10277 10278 10279 10280 10281 10282 10284 10286 10287 10287 10289 10289 10290 10291 10294 10297 10301 10305 10309 10312 10316 10319 10322 10326 10330 10333 10335 10337 10340
10349 10345 10342 10339 10336 10333 10330 10327 10325 10323 10321 10319 10317 10315 10313 10310 10309 10306 10304 10300 10298 10295 10294 10291 10290 10288 10287 10285 10282 10279 10276 10272 10270 10268 10266 10265 10265 10264 10263 10262 10261 10261 10262 10261 10260 10260 10260 10259 10259 10258 10258 10257 10257 10257 10259 10262 10264 10266 10267 10269 10270 10272 10273 10275 10276 10278 10279 10279 10280 10280 10282 10285 10287 10290 10294 10298 10302 10306 10310 10314 10317 10321 10324 10327 10329 10332
10342 10339 10335 10332 10329 10326 10323 10320 10317 10315 10314 10311 10309 10307 10304 10302 10299 10297 10294 10292 10289 10287 10284 10282 10280 10279 10277 10275 10273 10270 10267 10264 10260 10258 10256 10255 10254 10254 10252 10251 10250 10250 10250 10250 10250 10249 10249 10249 10247 10247 10247 10247 10247 10247 10248 10250 10252 10254 10256 10258 10260 10262 10263 10264 10266 10268 10269 10270 10270 10272 10274 10275 10277 10280 10283 10287 10292 10297 10300 10305 10309 10312 10316 10319 10322 10324
10335 10332 10329 10325 10322 10319 10315 10313 10310 10307 10305 10304 10301 10299 10296 10294 10290 10288 10285 10283 10280 10277 10275 10272 10270 10269 10267 10265 10264 10261 10259 10255 10252 10249 10246 10244 10244 10243 10242 10241 10240 10239 10239 10240 10239 10238 10238 10237 10237 10236 10236 10236 10236 10237 10237 10239 10241 10242 10244 10247 10249 10251 10252 10254 10256 10258 10259 10260 10261 10263 10264 10265 10267 10270 10273 10277 10281 10286 10290 10294 10299 10303 10307 10310 10314 10316
10329 10325 10322 10319 10315 10312 10309 10305 10303 10300 10298 10295 10294 10291 10289 10285 10282 10279 10277 10274 10271 10269 10265 10263 10261 10259 10257 10255 10254 10252 10249 10246 10242 10239 10237 10234 10233 10232 10232 10230 10229 10228 10228 10228 10228 10228 10227 10227 10226 10225 10225 10225 10225 10225 10227 10228 10229 10231 10233 10235 10237 10239 10240 10244 10247 10248 10249 10250 10252 10253 10254 10256 10259 10260 10263 10266 10270 10275 10280 10284 10289 10294 10299 10302 10305 10308
10322 10319 10315 10311 10308 10305 10302 10299 10295 10293 10290 10288 10285 10283 10280 10277 10274 10270 10267 10265 10262 10259 10257 10254 10251 10249 10247 10245 10244 10242 10240 10237 10233 10230 10227 10225 10223 10222 10221 10220 10219 10218 10218 10217 10217 10217 10216 10216 10215 10214 10214 10214 10214 10215 10215 10217 10218 10220 10222 10223 10225 10227 10230 10233 10236 10237 10238 10240 10241 10243 10245 10247 10249 10251 10254 10256 10260 10265 10269 10275 10280 10285 10289 10293 10297 10299
10316 10312 10308 10304 10300 10297 10294 10290 10288 10285 10282 10280 10278 10275 10272 10269 10266 10262 10259 10255 10252 10250 10247 10244 10242 10238 10237 10235 10233 10232 10230 10228 10225 10222 10218 10215 10213 10212 10210 10210 10208 10208 10207 10207 10206 10205 10205 10205 10204 10203 10203 10203 10203 10203 10204 10205 10207 10209 10211 10212 10213 10216 10219 10222 10224 10226 10228 10230 10231 10232 10235 10237 10239 10242 10244 10247 10250 10255 10259 10265 10270 10275 10279 10284 10287 10290
10309 10305 10301 10297 10294 10290 10286 10283 10280 10277 10274 10272 10270 10267 10264 10262 10258 10255 10251 10247 10244 10240 10237 10235 10232 10229 10227 10224 10222 10221 10220 10218 10216 10213 10209 10206 10203 10202 10200 10199 10198 10197 10197 10196 10195 10194 10194 10194 10193 10193 10192 10192 10193 10193 10193 10194 10196 10198 10200 10201 10202 10205 10207 10210 10212 10215 10218 10220 10220 10222 10225 10227 10229 10232 10235 10238 10241 10245 10250 10255 10260 10264 10269 10274 10279 10282
10302 10299 10294 10290 10287 10282 10279 10275 10272 10269 10267 10264 10262 10259 10256 10253 10250 10247 10243 10239 10235 10232 10228 10226 10223 10220 10217 10215 10212 10210 10209 10208 10206 10204 10201 10197 10194 10192 10190 10188 10188 10187 10186 10185 10184 10183 10183 10183 10183 10182 10182 10182 10182 10182 10182 10183 10185 10187 10188 10190 10192 10194 10196 10198 10201 10205 10208 10209 10210 10213 10215 10217 10220 10223 10226 10228 10232 10235 10239 10244 10249 10254 10259 10265 10269 10273
10297 10292 10288 10284 10279 10275 10272 10268 10265 10262 10259 10256 10254 10250 10248 10245 10242 10238 10235 10231 10227 10223 10220 10217 10214 10211 10208 10205 10203 10201 10199 10197 10196 10194 10192 10188 10185 10182 10180 10178 10177 10176 10176 10175 10174 10173 10173 10172 10172 10172 10172 10172 10172 10172 10172 10173 10175 10177 10178 10180 10182 10183 10185 10187 10191 10195 10197 10198 10200 10203 10205 10207 10210 10213 10217 10218 10222 10225 10229 10233 10238 10244 10250 10255 10260 10264
10290 10285 10281 10277 10272 10269 10265 10261 10257 10254 10250 10248 10245 10242 10239 10236 10233 10230 10226 10222 10218 10215 10212 10208 10205 10203 10200 10197 10194 10192 10190 10188 10186 10184 10182 10180 10177 10173 10171 10168 10167 10166 10165 10165 10164 10163 10163 10163 10162 10162 10163 10163 10162 10162 10162 10163 10165 10166 10168 10170 10172 10173 10175 10177 10180 10183 10185 10188 10190 10193 10195 10198 10202 10204 10206 10208 10212 10215 10219 10224 10228 10234 10240 10245 10251 10255
10283 10279 10274 10269 10265 10261 10257 10254 10250 10246 10243 10240 10237 10233 10231 10228 10225 10221 10217 10214 10210 10207 10203 10200 10197 10194 10192 10188 10186 10183 10181 10178 10176 10174 10172 10170 10167 10165 10162 10160 10158 10156 10155 10155 10155 10154 10154 10153 10153 10153 10153 10153 10153 10153 10153 10155 10155 10157 10158 10160 10162 10163 10165 10167 10170 10173 10175 10178 10181 10183 10186 10189 10192 10194 10196 10198 10202 10207 10210 10215 10219 10225 10230 10236 10242 10247
10276 10271 10267 10262 10258 10254 10250 10246 10242 10238 10235 10231 10228 10225 10222 10219 10216 10212 10209 10205 10202 10199 10196 10192 10189 10186 10183 10180 10177 10175 10173 10170 10167 10165 10163 10160 10158 10156 10154 10152 10150 10147 10146 10145 10145 10145 10145 10145 10145 10145 10145 10145 10144 10144 10145 10145 10147 10147 10148 10150 10152 10154 10155 10157 10160 10163 10166 10168 10171 10173 10177 10180 10182 10183 10186 10190 10194 10198 10201 10205 10210 10215 10220 10227 10232 10237
10269 10264 10260 10255 10250 10246 10242 10238 10234 10230 10227 10223 10219 10216 10213 10210 10207 10204 10201 10197 10194 10191 10188 10185 10181 10178 10175 10172 10169 10167 10164 10162 10158 10156 10154 10152 10150 10147 10145 10143 10142 10140 10138 10137 10136 10136 10136 10136 10136 10136 10136 10136 10136 10136 10136 10137 10138 10139 10140 10141 10143 10145 10147 10148 10151 10153 10157 10159 10162 10164 10167 10170 10172 10175 10178 10182 10185 10188 10191 10195 10200 10205 10211 10217 10222 10228
10262 10257 10252 10248 10243 10238 10235 10230 10227 10223 10219 10215 10212 10208 10205 10202 10198 10196 10193 10189 10186 10183 10180 10177 10173 10170 10167 10163 10160 10158 10155 10153 10150 10148 10145 10143 10141 10139 10137 10135 10133 10132 10130 10128 10128 10127 10127 10127 10127 10128 10128 10128 10128 10128 10128 10128 10130 10131 10132 10133 10134 10136 10138 10140 10142 10145 10147 10150 10152 10155 10158 10161 10163 10166 10169 10172 10175 10178 10182 10187 10192 10196 10202 10207 10213 10219
10254 10249 10245 10240 10235 10231 10227 10223 10219 10215 10212 10208 10204 10200 10197 10193 10190 10187 10184 10181 10178 10175 10172 10168 10165 10162 10159 10156 10152 10150 10147 10144 10142 10139 10137 10135 10133 10131 10129 10127 10125 10124 10122 10121 10120 10119 10119 10119 10119 10119 10120 10120 10120 10120 10120 10121 10122 10123 10123 10124 10126 10127 10129 10131 10133 10136 10138 10141 10143 10147 10149 10152 10155 10157 10160 10163 10166 10169 10173 10178 10182 10187 10192 10198 10205 10210